Home > Weather > Uppsala > Past weeks

Flag for Sweden Past Weather in Uppsala, Sweden — Yesterday and Last 2 Weeks

Now
63 °F

Sunny.


Feels Like: 63 °F
Forecast: 53 / 71 °F
Wind: 9 mph from Southwest

Location: Stockholm / Arlanda

Current Time: Jun 29, 2016 at 9:30:57 AM

Latest Report: Jun 29, 2016 at 8:50 AM


Visibility: 10 mi

Pressure: 29.92 "Hg

Humidity: 64%

Dew Point: 50 °F

Location of UppsalaLocation

Past Weather in Uppsala — Graph

°F

Uppsala Temperature Yesterday

Maximum temperature yesterday: 72 °F (at 1:50 PM)
Minimum temperature yesterday: 54 °F (at 2:50 AM)
Average temperature yesterday: 63 °F

High & Low Weather Summary for the Past Weeks

 TemperatureHumidityPressure
High81 °F (Jun 25, 2:50 PM)100% (Jun 16, 10:20 AM)30.18 "Hg (Jun 16, 10:20 AM)
Low43 °F (Jun 15, 2:50 AM)24% (Jun 14, 2:20 PM)29.30 "Hg (Jun 18, 4:50 AM)
Average62 °F76%29.83 "Hg
* Reported Jun 14 8:20 AM — Jun 29 8:20 AM, Uppsala, Weather by CustomWeather, © 2016

Note: Actual official high and low records may vary slightly from our data, if they occured in-between our weather recording intervals... More about our weather records

Advertising

Uppsala Weather History for the Previous 24 Hours

Scroll right to see more
 ConditionsComfort  
Time TempWeatherWind HumidityBarometerVisibility
8:20 AM
Wed, Jun 29
63 °FSunny.8 mph64%29.92 "Hg10 mi
7:50 AM59 °FSunny.8 mph72%29.92 "Hg10 mi
7:20 AM59 °FSunny.8 mph77%29.92 "Hg10 mi
6:50 AM57 °FSunny.8 mph77%29.92 "Hg10 mi
6:20 AM55 °FSunny.8 mph82%29.92 "Hg10 mi
5:50 AM55 °FSunny.8 mph82%29.92 "Hg10 mi
5:20 AM55 °FSunny.6 mph77%29.92 "Hg10 mi
4:50 AM54 °FSunny.6 mph82%29.92 "Hg10 mi
4:20 AM54 °FClear.7 mph82%29.92 "Hg10 mi
3:50 AM54 °FClear.7 mph77%29.92 "Hg10 mi
3:20 AM54 °FClear.6 mph77%29.92 "Hg10 mi
2:50 AM55 °FClear.6 mph72%29.92 "Hg10 mi
2:20 AM55 °FClear.7 mph67%29.92 "Hg10 mi
1:50 AM55 °FClear.6 mph67%29.92 "Hg10 mi
1:20 AM55 °FClear.6 mph67%29.89 "Hg10 mi
12:50 AM57 °FClear.6 mph63%29.89 "Hg10 mi
12:20 AM57 °FClear.7 mph63%29.89 "Hg10 mi
11:50 PM
Tue, Jun 28
59 °FClear.8 mph59%29.89 "Hg10 mi
11:20 PM55 °FClear.5 mph72%29.89 "Hg10 mi
10:50 PM59 °FSunny.6 mph63%29.89 "Hg10 mi
10:20 PM59 °FSunny.3 mph63%29.89 "Hg10 mi
9:50 PM61 °FPassing clouds.5 mph59%29.86 "HgN/A
9:20 PM64 °FSunny.5 mph49%29.86 "Hg10 mi
8:50 PM64 °FSunny.8 mph52%29.86 "Hg10 mi
8:20 PM64 °FSunny.12 mph49%29.86 "Hg10 mi
7:50 PM66 °FSunny.10 mph46%29.86 "Hg10 mi
7:20 PM66 °FSunny.12 mph49%29.86 "Hg10 mi
6:50 PM68 °FPassing clouds.12 mph43%29.86 "HgN/A
6:20 PM68 °FSunny.15 mph43%29.86 "Hg10 mi
5:50 PM70 °FSunny.17 mph38%29.86 "Hg10 mi
5:20 PM70 °FSunny.16 mph43%29.86 "Hg10 mi
4:50 PM70 °FSunny.15 mph43%29.83 "Hg10 mi
4:20 PM70 °FSunny.15 mph43%29.83 "Hg10 mi
3:50 PM70 °FPassing clouds.14 mph46%29.83 "HgN/A
3:20 PM70 °FSunny.15 mph50%29.83 "Hg10 mi
2:50 PM70 °FPassing clouds.15 mph53%29.83 "HgN/A
2:20 PM72 °FSunny.16 mph47%29.83 "Hg10 mi
1:50 PM72 °FSunny.14 mph50%29.83 "Hg10 mi
1:20 PM70 °FPassing clouds.13 mph57%29.83 "HgN/A
12:50 PM70 °FPassing clouds.13 mph57%29.86 "HgN/A
12:20 PM68 °FScattered clouds.12 mph56%29.86 "HgN/A
11:50 AM66 °FScattered clouds.13 mph68%29.86 "HgN/A
11:20 AM66 °FBroken clouds.13 mph73%29.86 "HgN/A
10:50 AM64 °FScattered clouds.13 mph78%29.86 "HgN/A
10:20 AM63 °FScattered clouds.13 mph88%29.86 "HgN/A
9:50 AM64 °FScattered showers. Partly sunny.12 mph68%29.83 "HgN/A
9:20 AM66 °FPartly sunny.14 mph64%29.83 "HgN/A
Weather by CustomWeather, © 2016

See weather overviewHow to use our weather pages